This is the latest recevied weather packets stored in our database for station/object K4DNM. If no packets are shown the sender has not sent any weather packets the latest 10 day(s).
| Time | Temp. | Humidity | Pressure | Rain* | Wind** | Luminosity | Snow |
|---|---|---|---|---|---|---|---|
| 1778015637 | 26.67° C | 45% | 1013.5 hPa | 0 mm | - | 80 W/m² | - |
| 1778015337 | 26.67° C | 44% | 1013.4 hPa | 0 mm | - | 168 W/m² | - |
| 1778015036 | 26.11° C | 46% | 1013.5 hPa | 0 mm | - | 142 W/m² | - |
| 1778014737 | 26.67° C | 46% | 1013.6 hPa | 0 mm | - | 322 W/m² | - |
| 1778014437 | 26.67° C | 47% | 1013.6 hPa | 0 mm | - | 187 W/m² | - |
| 1778014137 | 26.67° C | 46% | 1013.6 hPa | 0 mm | - | 160 W/m² | - |
| 1778013837 | 27.22° C | 46% | 1013.5 hPa | 0 mm | - | 515 W/m² | - |
| 1778013596 | 26.67° C | 45% | 1013.5 hPa | 0 mm | - | 557 W/m² | - |
| 1778013296 | 26.67° C | 46% | 1013.5 hPa | 0 mm | - | 573 W/m² | - |
| 1778012936 | 26.67° C | 47% | 1013.5 hPa | 0 mm | - | 589 W/m² | - |
| 1778012695 | 26.67° C | 46% | 1013.5 hPa | 0 mm | - | 589 W/m² | - |
| 1778012484 | 26.67° C | 46% | 1013.9 hPa | 0 mm | - | 522 W/m² | - |
| 1778012452 | 26.67° C | 46% | 1013.6 hPa | 0 mm | - | 566 W/m² | - |
| 1778012392 | 26.67° C | 46% | 1013.7 hPa | 0 mm | - | 626 W/m² | - |
| 1778012336 | 26.67° C | 46% | 1013.7 hPa | 0 mm | - | 563 W/m² | - |
| 1778012276 | 26.67° C | 46% | 1013.8 hPa | 0 mm | - | 521 W/m² | - |
| 1778011195 | 26.67° C | 46% | 1013.9 hPa | 0 mm | - | 522 W/m² | - |
| 1778010835 | 26.67° C | 44% | 1013.9 hPa | 0 mm | - | 626 W/m² | - |
| 1778010535 | 26.67° C | 44% | 1014 hPa | 0 mm | - | 745 W/m² | - |
| 1778010234 | 26.67° C | 45% | 1014 hPa | 0 mm | - | 827 W/m² | - |
| 1778009937 | 26.67° C | 48% | 1014.2 hPa | 0 mm | - | 657 W/m² | - |
| 1778009631 | 26.67° C | 45% | 1014.3 hPa | 0 mm | - | 322 W/m² | - |
| 1778009332 | 27.22° C | 44% | 1014.3 hPa | 0 mm | - | 435 W/m² | - |
| 1778009031 | 27.22° C | 45% | 1014.4 hPa | 0 mm | - | 590 W/m² | - |
| 1778008731 | 26.67° C | 45% | 1014.5 hPa | 0 mm | - | 851 W/m² | - |
* Rain latest hour (hover to see other rain measurements)
** Current wind speed in m/s (hover to see current wind gust speed)